Location: Ostrava
(49.8330°N, 18.2830°E)
Time: 04:56:27
(UTC+01:00)

ISS - Pass Details

Date: 16 December 2017
Orbit: 402 x 407 km, 51.6° (Epoch: 22 January)

Event Time Altitude Azimuth Distance (km) Brightness Sun altitude
Rises 16:52:30 0° 286° (WNW) 2,341 0.9 -10.0°
Reaches altitude 10° 16:54:48 10° 274° (W) 1,476 0.1 -10.4°
Maximum altitude 16:57:37 26° 215° (SW) 841 -1.5 -10.8°
Drops below altitude 10° 17:00:25 10° 156° (SSE) 1,466 -1.0 -11.2°
Enters shadow 17:05:09 -8° 138° (SE) 3,308 0.6 -11.9°
